Time,TemperatureF,DewpointF,PressureIn,WindDirection,WindDirectionDegrees,WindSpeedMPH,WindSpeedGustMPH,Humidity,HourlyPrecipIn,Conditions,Clouds,dailyrainin,SoftwareType,DateUTC
2013-08-31 00:00:00,70.6,68.5,29.93,North,0,0.0,0.0,93,0.00,,,0.00,WUHU216DAVISVP2,2013-08-31 04:00:00,
2013-08-31 00:01:00,70.7,68.5,29.93,SW,217,0.0,0.0,93,0.00,,,0.00,WUHU216DAVISVP2,2013-08-31 04:01:00,
2013-08-31 00:02:00,70.7,68.5,29.93,SW,217,0.0,0.0,93,0.00,,,0.00,WUHU216DAVISVP2,2013-08-31 04:02:00,
2013-08-31 00:07:00,70.8,68.3,29.93,SW,217,0.0,0.0,92,0.00,,,0.00,WUHU216DAVISVP2,2013-08-31 04:07:00,
2013-08-31 00:12:00,70.9,68.4,29.93,SW,217,0.0,0.0,92,0.00,,,0.00,WUHU216DAVISVP2,2013-08-31 04:12:00,
2013-08-31 00:17:00,70.9,68.4,29.93,SW,217,0.0,0.0,92,0.00,,,0.00,WUHU216DAVISVP2,2013-08-31 04:17:00,
2013-08-31 00:22:00,70.9,68.4,29.93,SW,217,0.0,0.0,92,0.00,,,0.00,WUHU216DAVISVP2,2013-08-31 04:22:00,
2013-08-31 00:27:00,71.0,68.5,29.93,SW,217,0.0,0.0,92,0.00,,,0.00,WUHU216DAVISVP2,2013-08-31 04:27:00,
2013-08-31 00:30:00,71.0,68.6,29.93,North,0,0.0,0.0,92,0.00,,,0.00,WUHU216DAVISVP2,2013-08-31 04:30:00,
2013-08-31 00:32:00,71.1,68.6,29.93,SW,217,0.0,0.0,92,0.00,,,0.00,WUHU216DAVISVP2,2013-08-31 04:32:00,
2013-08-31 00:37:00,71.1,68.6,29.93,SW,217,0.0,0.0,92,0.00,,,0.00,WUHU216DAVISVP2,2013-08-31 04:37:00,
2013-08-31 00:42:00,71.1,68.6,29.93,SW,217,0.0,0.0,92,0.00,,,0.00,WUHU216DAVISVP2,2013-08-31 04:42:00,
2013-08-31 00:47:00,71.3,68.8,29.93,SW,217,0.0,0.0,92,0.00,,,0.00,WUHU216DAVISVP2,2013-08-31 04:47:00,
2013-08-31 00:52:00,71.2,68.7,29.93,SW,217,0.0,0.0,92,0.00,,,0.00,WUHU216DAVISVP2,2013-08-31 04:52:00,
2013-08-31 00:57:00,71.1,68.6,29.93,SW,217,0.0,0.0,92,0.00,,,0.00,WUHU216DAVISVP2,2013-08-31 04:57:00,
2013-08-31 01:00:00,71.0,68.9,29.93,North,0,0.0,0.0,93,0.00,,,0.00,WUHU216DAVISVP2,2013-08-31 05:00:00,
2013-08-31 01:02:00,70.9,68.7,29.93,SW,217,0.0,0.0,93,0.00,,,0.00,WUHU216DAVISVP2,2013-08-31 05:02:00,
2013-08-31 01:07:00,70.8,68.3,29.93,SSW,195,0.0,1.0,92,0.00,,,0.00,WUHU216DAVISVP2,2013-08-31 05:07:00,
2013-08-31 01:12:00,70.7,68.6,29.93,SSW,195,0.0,1.0,93,0.00,,,0.00,WUHU216DAVISVP2,2013-08-31 05:12:00,
2013-08-31 01:17:00,70.4,68.3,29.93,SSW,195,0.0,1.0,93,0.00,,,0.00,WUHU216DAVISVP2,2013-08-31 05:17:00,
2013-08-31 01:22:00,70.2,68.1,29.93,SSW,195,0.0,1.0,93,0.00,,,0.00,WUHU216DAVISVP2,2013-08-31 05:22:00,
2013-08-31 01:27:00,70.1,68.0,29.93,SW,226,0.0,1.0,93,0.00,,,0.00,WUHU216DAVISVP2,2013-08-31 05:27:00,
2013-08-31 01:30:00,70.1,68.0,29.93,SW,225,0.0,1.0,93,0.00,,,0.00,WUHU216DAVISVP2,2013-08-31 05:30:00,
2013-08-31 01:32:00,70.0,67.9,29.93,SW,225,0.0,1.0,93,0.00,,,0.00,WUHU216DAVISVP2,2013-08-31 05:32:00,
2013-08-31 01:37:00,69.8,68.0,29.93,SW,226,0.0,1.0,94,0.00,,,0.00,WUHU216DAVISVP2,2013-08-31 05:37:00,
2013-08-31 01:42:00,69.7,67.9,29.93,SW,224,0.0,1.0,94,0.00,,,0.00,WUHU216DAVISVP2,2013-08-31 05:42:00,
2013-08-31 01:47:00,69.6,67.8,29.93,SW,224,0.0,0.0,94,0.00,,,0.00,WUHU216DAVISVP2,2013-08-31 05:47:00,
2013-08-31 01:52:00,69.5,67.7,29.93,SW,225,0.0,0.0,94,0.00,,,0.00,WUHU216DAVISVP2,2013-08-31 05:52:00,
2013-08-31 01:57:00,69.4,67.6,29.93,SW,225,0.0,0.0,94,0.00,,,0.00,WUHU216DAVISVP2,2013-08-31 05:57:00,
2013-08-31 02:00:00,69.4,67.6,29.93,North,0,0.0,0.0,94,0.00,,,0.00,WUHU216DAVISVP2,2013-08-31 06:00:00,
2013-08-31 02:02:00,69.4,67.6,29.93,SW,226,0.0,0.0,94,0.00,,,0.00,WUHU216DAVISVP2,2013-08-31 06:02:00,
2013-08-31 02:07:00,69.4,67.6,29.92,SW,226,0.0,0.0,94,0.00,,,0.00,WUHU216DAVISVP2,2013-08-31 06:07:00,
2013-08-31 02:12:00,69.4,67.6,29.92,SW,224,0.0,1.0,94,0.00,,,0.00,WUHU216DAVISVP2,2013-08-31 06:12:00,
2013-08-31 02:17:00,69.5,67.7,29.92,SSW,205,0.0,1.0,94,0.00,,,0.00,WUHU216DAVISVP2,2013-08-31 06:17:00,
2013-08-31 02:22:00,69.6,67.8,29.92,SW,215,0.0,2.0,94,0.00,,,0.00,WUHU216DAVISVP2,2013-08-31 06:22:00,
2013-08-31 02:27:00,69.6,67.5,29.92,SSW,208,0.0,2.0,93,0.00,,,0.00,WUHU216DAVISVP2,2013-08-31 06:27:00,
2013-08-31 02:30:00,69.6,67.5,29.92,SW,225,0.0,2.0,93,0.00,,,0.00,WUHU216DAVISVP2,2013-08-31 06:30:00,
2013-08-31 02:32:00,69.6,67.1,29.92,SW,228,0.0,2.0,92,0.00,,,0.00,WUHU216DAVISVP2,2013-08-31 06:32:00,
2013-08-31 02:37:00,69.4,67.3,29.92,SW,228,0.0,2.0,93,0.00,,,0.00,WUHU216DAVISVP2,2013-08-31 06:37:00,
2013-08-31 02:42:00,69.3,67.2,29.92,SW,226,0.0,1.0,93,0.00,,,0.00,WUHU216DAVISVP2,2013-08-31 06:42:00,
2013-08-31 02:47:00,69.4,67.3,29.93,SW,221,0.0,2.0,93,0.00,,,0.00,WUHU216DAVISVP2,2013-08-31 06:47:00,
2013-08-31 02:52:00,69.4,67.3,29.93,SW,226,0.0,2.0,93,0.00,,,0.00,WUHU216DAVISVP2,2013-08-31 06:52:00,
2013-08-31 02:57:00,69.4,67.3,29.93,SW,235,0.0,2.0,93,0.00,,,0.00,WUHU216DAVISVP2,2013-08-31 06:57:00,
2013-08-31 03:00:00,69.4,67.3,29.93,SW,225,0.0,2.0,93,0.00,,,0.00,WUHU216DAVISVP2,2013-08-31 07:00:00,
2013-08-31 03:02:00,69.3,67.2,29.93,SW,222,1.0,2.0,93,0.00,,,0.00,WUHU216DAVISVP2,2013-08-31 07:02:00,
2013-08-31 03:07:00,69.2,67.1,29.92,SW,236,0.0,3.0,93,0.00,,,0.00,WUHU216DAVISVP2,2013-08-31 07:07:00,
2013-08-31 03:12:00,69.2,67.1,29.92,SW,233,0.0,3.0,93,0.00,,,0.00,WUHU216DAVISVP2,2013-08-31 07:12:00,
2013-08-31 03:17:00,69.0,66.9,29.92,SW,226,1.0,2.0,93,0.00,,,0.00,WUHU216DAVISVP2,2013-08-31 07:17:00,
2013-08-31 03:22:00,69.0,66.9,29.92,SW,224,0.0,2.0,93,0.00,,,0.00,WUHU216DAVISVP2,2013-08-31 07:22:00,
2013-08-31 03:27:00,69.0,66.9,29.92,SW,229,1.0,3.0,93,0.00,,,0.00,WUHU216DAVISVP2,2013-08-31 07:27:00,
2013-08-31 03:30:00,69.0,66.9,29.92,SW,225,0.0,3.0,93,0.00,,,0.00,WUHU216DAVISVP2,2013-08-31 07:30:00,
2013-08-31 03:32:00,69.0,66.9,29.92,WSW,238,0.0,3.0,93,0.00,,,0.00,WUHU216DAVISVP2,2013-08-31 07:32:00,
2013-08-31 03:37:00,68.9,66.8,29.91,WSW,239,0.0,3.0,93,0.00,,,0.00,WUHU216DAVISVP2,2013-08-31 07:37:00,
2013-08-31 03:42:00,68.6,66.8,29.91,WSW,238,0.0,3.0,94,0.00,,,0.00,WUHU216DAVISVP2,2013-08-31 07:42:00,
2013-08-31 03:47:00,68.5,66.7,29.91,WSW,238,0.0,1.0,94,0.00,,,0.00,WUHU216DAVISVP2,2013-08-31 07:47:00,
2013-08-31 03:52:00,68.3,66.5,29.91,WSW,239,0.0,1.0,94,0.00,,,0.00,WUHU216DAVISVP2,2013-08-31 07:52:00,
2013-08-31 03:57:00,68.0,66.2,29.91,WSW,238,0.0,1.0,94,0.00,,,0.00,WUHU216DAVISVP2,2013-08-31 07:57:00,
2013-08-31 04:00:00,68.0,66.5,29.91,WSW,248,0.0,1.0,95,0.00,,,0.00,WUHU216DAVISVP2,2013-08-31 08:00:00,
2013-08-31 04:02:00,67.9,66.4,29.91,WSW,239,0.0,1.0,95,0.00,,,0.00,WUHU216DAVISVP2,2013-08-31 08:02:00,
2013-08-31 04:07:00,67.9,66.4,29.91,WSW,238,0.0,1.0,95,0.00,,,0.00,WUHU216DAVISVP2,2013-08-31 08:07:00,
2013-08-31 04:12:00,67.8,66.3,29.91,WSW,239,0.0,1.0,95,0.00,,,0.00,WUHU216DAVISVP2,2013-08-31 08:12:00,
2013-08-31 04:17:00,67.7,66.2,29.91,SW,228,1.0,1.0,95,0.00,,,0.00,WUHU216DAVISVP2,2013-08-31 08:17:00,
2013-08-31 04:22:00,67.9,66.4,29.91,SW,224,0.0,2.0,95,0.00,,,0.00,WUHU216DAVISVP2,2013-08-31 08:22:00,
2013-08-31 04:27:00,68.0,66.5,29.91,SW,221,1.0,2.0,95,0.00,,,0.00,WUHU216DAVISVP2,2013-08-31 08:27:00,
2013-08-31 04:30:00,68.0,66.5,29.91,SW,225,0.0,2.0,95,0.00,,,0.00,WUHU216DAVISVP2,2013-08-31 08:30:00,
2013-08-31 04:32:00,68.0,66.5,29.91,SW,233,0.0,2.0,95,0.00,,,0.00,WUHU216DAVISVP2,2013-08-31 08:32:00,
2013-08-31 04:37:00,68.0,66.5,29.91,WSW,249,0.0,2.0,95,0.00,,,0.00,WUHU216DAVISVP2,2013-08-31 08:37:00,
2013-08-31 04:42:00,67.9,66.1,29.91,WSW,248,0.0,2.0,94,0.00,,,0.00,WUHU216DAVISVP2,2013-08-31 08:42:00,
2013-08-31 04:47:00,67.7,66.2,29.90,WSW,249,0.0,2.0,95,0.00,,,0.00,WUHU216DAVISVP2,2013-08-31 08:47:00,
2013-08-31 04:52:00,67.6,66.1,29.90,WSW,249,0.0,1.0,95,0.00,,,0.00,WUHU216DAVISVP2,2013-08-31 08:52:00,
2013-08-31 04:57:00,67.5,66.0,29.90,WSW,248,0.0,1.0,95,0.00,,,0.00,WUHU216DAVISVP2,2013-08-31 08:57:00,
2013-08-31 05:00:00,67.5,66.0,29.90,SW,225,0.0,1.0,95,0.00,,,0.00,WUHU216DAVISVP2,2013-08-31 09:00:00,
2013-08-31 05:02:00,67.5,66.0,29.90,WSW,248,0.0,1.0,95,0.00,,,0.00,WUHU216DAVISVP2,2013-08-31 09:02:00,
2013-08-31 05:07:00,67.4,65.9,29.90,WSW,248,0.0,1.0,95,0.00,,,0.00,WUHU216DAVISVP2,2013-08-31 09:07:00,
2013-08-31 05:12:00,67.2,65.7,29.90,WSW,248,0.0,1.0,95,0.00,,,0.00,WUHU216DAVISVP2,2013-08-31 09:12:00,
2013-08-31 05:17:00,67.2,66.0,29.90,WSW,238,0.0,1.0,96,0.00,,,0.00,WUHU216DAVISVP2,2013-08-31 09:17:00,
2013-08-31 05:22:00,67.1,65.9,29.90,WSW,238,0.0,1.0,96,0.00,,,0.00,WUHU216DAVISVP2,2013-08-31 09:22:00,
2013-08-31 05:27:00,67.0,65.8,29.90,WSW,238,0.0,1.0,96,0.00,,,0.00,WUHU216DAVISVP2,2013-08-31 09:27:00,
2013-08-31 05:30:00,66.9,65.7,29.91,WSW,248,0.0,1.0,96,0.00,,,0.00,WUHU216DAVISVP2,2013-08-31 09:30:00,
2013-08-31 05:32:00,67.0,65.8,29.91,WSW,238,0.0,1.0,96,0.00,,,0.00,WUHU216DAVISVP2,2013-08-31 09:32:00,
2013-08-31 05:37:00,67.1,66.2,29.91,SW,224,0.0,2.0,97,0.00,,,0.00,WUHU216DAVISVP2,2013-08-31 09:37:00,
2013-08-31 05:42:00,67.1,65.9,29.91,SW,217,0.0,2.0,96,0.00,,,0.00,WUHU216DAVISVP2,2013-08-31 09:42:00,
2013-08-31 05:47:00,67.1,66.2,29.91,SSW,197,0.0,1.0,97,0.00,,,0.00,WUHU216DAVISVP2,2013-08-31 09:47:00,
2013-08-31 05:52:00,67.3,66.4,29.91,WSW,238,2.0,2.0,97,0.00,,,0.00,WUHU216DAVISVP2,2013-08-31 09:52:00,
2013-08-31 05:57:00,67.6,66.7,29.91,SW,231,1.0,3.0,97,0.00,,,0.00,WUHU216DAVISVP2,2013-08-31 09:57:00,
2013-08-31 06:00:00,67.6,66.4,29.91,SW,225,0.0,3.0,96,0.00,,,0.00,WUHU216DAVISVP2,2013-08-31 10:00:00,
2013-08-31 06:02:00,67.7,66.5,29.91,West,259,3.0,6.0,96,0.00,,,0.00,WUHU216DAVISVP2,2013-08-31 10:02:00,
2013-08-31 06:07:00,67.9,66.7,29.91,SW,231,1.0,6.0,96,0.00,,,0.00,WUHU216DAVISVP2,2013-08-31 10:07:00,
2013-08-31 06:12:00,68.1,66.6,29.91,SW,235,1.0,5.0,95,0.00,,,0.00,WUHU216DAVISVP2,2013-08-31 10:12:00,
2013-08-31 06:17:00,68.1,66.6,29.91,SW,231,1.0,5.0,95,0.00,,,0.00,WUHU216DAVISVP2,2013-08-31 10:17:00,
2013-08-31 06:22:00,68.0,66.5,29.90,WSW,243,0.0,5.0,95,0.00,,,0.00,WUHU216DAVISVP2,2013-08-31 10:22:00,
2013-08-31 06:27:00,67.9,66.4,29.91,WSW,248,2.0,5.0,95,0.00,,,0.00,WUHU216DAVISVP2,2013-08-31 10:27:00,
2013-08-31 06:30:00,67.9,66.4,29.91,SW,225,1.0,6.0,95,0.00,,,0.00,WUHU216DAVISVP2,2013-08-31 10:30:00,
2013-08-31 06:32:00,67.9,66.4,29.91,West,264,0.0,5.0,95,0.00,,,0.00,WUHU216DAVISVP2,2013-08-31 10:32:00,
2013-08-31 06:37:00,67.8,66.3,29.91,WSW,240,0.0,5.0,95,0.00,,,0.00,WUHU216DAVISVP2,2013-08-31 10:37:00,
2013-08-31 06:42:00,67.8,66.3,29.91,SW,218,0.0,5.0,95,0.00,,,0.00,WUHU216DAVISVP2,2013-08-31 10:42:00,
2013-08-31 06:47:00,67.7,66.2,29.91,SW,232,1.0,4.0,95,0.00,,,0.00,WUHU216DAVISVP2,2013-08-31 10:47:00,
2013-08-31 06:52:00,67.7,66.2,29.91,SW,224,0.0,4.0,95,0.00,,,0.00,WUHU216DAVISVP2,2013-08-31 10:52:00,
2013-08-31 06:57:00,67.7,66.2,29.91,WSW,245,2.0,4.0,95,0.00,,,0.00,WUHU216DAVISVP2,2013-08-31 10:57:00,
2013-08-31 07:00:00,67.8,66.3,29.91,SW,225,1.0,5.0,95,0.00,,,0.00,WUHU216DAVISVP2,2013-08-31 11:00:00,
2013-08-31 07:02:00,67.8,66.3,29.91,SW,231,0.0,4.0,95,0.00,,,0.00,WUHU216DAVISVP2,2013-08-31 11:02:00,
2013-08-31 07:07:00,67.8,66.3,29.91,SW,226,0.0,4.0,95,0.00,,,0.00,WUHU216DAVISVP2,2013-08-31 11:07:00,
2013-08-31 07:12:00,67.8,66.3,29.91,WSW,238,0.0,3.0,95,0.00,,,0.00,WUHU216DAVISVP2,2013-08-31 11:12:00,
2013-08-31 07:17:00,67.8,66.3,29.91,WSW,253,1.0,4.0,95,0.00,,,0.00,WUHU216DAVISVP2,2013-08-31 11:17:00,
2013-08-31 07:22:00,67.9,66.4,29.91,WSW,242,2.0,4.0,95,0.00,,,0.00,WUHU216DAVISVP2,2013-08-31 11:22:00,
2013-08-31 07:27:00,67.9,66.4,29.91,SW,226,2.0,4.0,95,0.00,,,0.00,WUHU216DAVISVP2,2013-08-31 11:27:00,
2013-08-31 07:30:00,68.0,66.5,29.91,SW,225,1.0,4.0,95,0.00,,,0.00,WUHU216DAVISVP2,2013-08-31 11:30:00,
2013-08-31 07:32:00,68.0,66.5,29.91,SW,224,2.0,4.0,95,0.00,,,0.00,WUHU216DAVISVP2,2013-08-31 11:32:00,
2013-08-31 07:37:00,68.3,66.8,29.91,SW,225,1.0,5.0,95,0.00,,,0.00,WUHU216DAVISVP2,2013-08-31 11:37:00,
2013-08-31 07:42:00,68.6,67.1,29.91,SW,232,1.0,5.0,95,0.00,,,0.00,WUHU216DAVISVP2,2013-08-31 11:42:00,
2013-08-31 07:47:00,68.9,67.1,29.91,SW,215,2.0,6.0,94,0.00,,,0.00,WUHU216DAVISVP2,2013-08-31 11:47:00,
2013-08-31 07:52:00,69.2,67.4,29.91,WSW,246,1.0,6.0,94,0.00,,,0.00,WUHU216DAVISVP2,2013-08-31 11:52:00,
2013-08-31 07:57:00,69.3,67.2,29.91,SW,226,4.0,8.0,93,0.00,,,0.00,WUHU216DAVISVP2,2013-08-31 11:57:00,
2013-08-31 08:00:00,69.4,67.3,29.91,SW,225,2.0,8.0,93,0.00,,,0.00,WUHU216DAVISVP2,2013-08-31 12:00:00,
2013-08-31 08:02:00,69.4,67.3,29.91,WSW,239,3.0,8.0,93,0.00,,,0.00,WUHU216DAVISVP2,2013-08-31 12:02:00,
2013-08-31 08:07:00,69.6,67.5,29.91,West,263,2.0,9.0,93,0.00,,,0.00,WUHU216DAVISVP2,2013-08-31 12:07:00,
2013-08-31 08:12:00,69.8,67.3,29.91,WSW,252,1.0,9.0,92,0.00,,,0.00,WUHU216DAVISVP2,2013-08-31 12:12:00,
2013-08-31 08:17:00,70.1,67.6,29.92,SW,233,6.0,8.0,92,0.00,,,0.00,WUHU216DAVISVP2,2013-08-31 12:17:00,
2013-08-31 08:22:00,70.3,67.8,29.91,WSW,253,2.0,8.0,92,0.00,,,0.00,WUHU216DAVISVP2,2013-08-31 12:22:00,
2013-08-31 08:27:00,70.6,67.8,29.92,West,274,1.0,8.0,91,0.00,,,0.00,WUHU216DAVISVP2,2013-08-31 12:27:00,
2013-08-31 08:30:00,70.7,67.9,29.92,SW,225,2.0,9.0,91,0.00,,,0.00,WUHU216DAVISVP2,2013-08-31 12:30:00,
2013-08-31 08:32:00,70.9,68.1,29.92,WSW,250,3.0,8.0,91,0.00,,,0.00,WUHU216DAVISVP2,2013-08-31 12:32:00,
2013-08-31 08:37:00,71.2,68.4,29.92,SW,219,0.0,7.0,91,0.00,,,0.00,WUHU216DAVISVP2,2013-08-31 12:37:00,
2013-08-31 08:42:00,71.5,68.4,29.92,SW,235,2.0,7.0,90,0.00,,,0.00,WUHU216DAVISVP2,2013-08-31 12:42:00,
2013-08-31 08:47:00,71.7,68.6,29.92,SW,236,3.0,10.0,90,0.00,,,0.00,WUHU216DAVISVP2,2013-08-31 12:47:00,
2013-08-31 08:52:00,71.9,68.8,29.92,SW,224,4.0,10.0,90,0.00,,,0.00,WUHU216DAVISVP2,2013-08-31 12:52:00,
2013-08-31 08:57:00,72.2,68.8,29.92,SW,226,3.0,11.0,89,0.00,,,0.00,WUHU216DAVISVP2,2013-08-31 12:57:00,
2013-08-31 09:00:00,72.3,68.9,29.92,WSW,248,2.0,11.0,89,0.00,,,0.00,WUHU216DAVISVP2,2013-08-31 13:00:00,
2013-08-31 09:02:00,72.5,69.1,29.92,SW,232,5.0,11.0,89,0.00,,,0.00,WUHU216DAVISVP2,2013-08-31 13:02:00,
2013-08-31 09:07:00,72.8,69.4,29.92,WSW,242,6.0,11.0,89,0.00,,,0.00,WUHU216DAVISVP2,2013-08-31 13:07:00,
2013-08-31 09:12:00,73.1,69.3,29.92,WSW,250,3.0,10.0,88,0.00,,,0.00,WUHU216DAVISVP2,2013-08-31 13:12:00,
2013-08-31 09:17:00,73.6,69.8,29.92,WSW,242,1.0,10.0,88,0.00,,,0.00,WUHU216DAVISVP2,2013-08-31 13:17:00,
2013-08-31 09:22:00,74.0,69.9,29.92,SW,231,5.0,8.0,87,0.00,,,0.00,WUHU216DAVISVP2,2013-08-31 13:22:00,
2013-08-31 09:27:00,74.2,70.1,29.92,SW,226,3.0,8.0,87,0.00,,,0.00,WUHU216DAVISVP2,2013-08-31 13:27:00,
2013-08-31 09:30:00,74.4,70.3,29.92,WSW,248,3.0,9.0,87,0.00,,,0.00,WUHU216DAVISVP2,2013-08-31 13:30:00,
2013-08-31 09:32:00,74.6,70.5,29.92,WSW,245,0.0,7.0,87,0.00,,,0.00,WUHU216DAVISVP2,2013-08-31 13:32:00,
2013-08-31 09:37:00,75.0,70.6,29.92,SW,215,0.0,6.0,86,0.00,,,0.00,WUHU216DAVISVP2,2013-08-31 13:37:00,
2013-08-31 09:42:00,75.3,70.5,29.92,West,266,2.0,6.0,85,0.00,,,0.00,WUHU216DAVISVP2,2013-08-31 13:42:00,
2013-08-31 09:47:00,75.5,70.7,29.92,WSW,253,1.0,5.0,85,0.00,,,0.00,WUHU216DAVISVP2,2013-08-31 13:47:00,
2013-08-31 09:52:00,75.5,71.0,29.92,SW,228,1.0,7.0,86,0.00,,,0.00,WUHU216DAVISVP2,2013-08-31 13:52:00,
2013-08-31 09:57:00,75.6,71.1,29.92,WSW,252,0.0,7.0,86,0.00,,,0.00,WUHU216DAVISVP2,2013-08-31 13:57:00,
2013-08-31 10:00:00,75.7,70.9,29.92,WSW,248,2.0,7.0,85,0.00,,,0.00,WUHU216DAVISVP2,2013-08-31 14:00:00,
2013-08-31 10:02:00,75.7,70.9,29.92,SW,225,1.0,7.0,85,0.00,,,0.00,WUHU216DAVISVP2,2013-08-31 14:02:00,
2013-08-31 10:07:00,76.2,71.4,29.92,SW,231,2.0,7.0,85,0.00,,,0.00,WUHU216DAVISVP2,2013-08-31 14:07:00,
2013-08-31 10:12:00,76.8,72.0,29.92,West,260,1.0,6.0,85,0.00,,,0.00,WUHU216DAVISVP2,2013-08-31 14:12:00,
2013-08-31 10:17:00,77.7,72.5,29.93,WSW,238,4.0,6.0,84,0.00,,,0.00,WUHU216DAVISVP2,2013-08-31 14:17:00,
2013-08-31 10:22:00,77.7,72.2,29.93,SSW,210,2.0,6.0,83,0.00,,,0.00,WUHU216DAVISVP2,2013-08-31 14:22:00,
2013-08-31 10:27:00,77.6,71.7,29.93,SW,232,1.0,8.0,82,0.00,,,0.00,WUHU216DAVISVP2,2013-08-31 14:27:00,
2013-08-31 10:30:00,77.6,72.0,29.93,SW,225,2.0,8.0,83,0.00,,,0.00,WUHU216DAVISVP2,2013-08-31 14:30:00,
2013-08-31 10:32:00,77.7,72.1,29.93,South,181,1.0,8.0,83,0.00,,,0.00,WUHU216DAVISVP2,2013-08-31 14:32:00,
2013-08-31 10:37:00,77.8,71.9,29.93,WSW,238,2.0,8.0,82,0.00,,,0.00,WUHU216DAVISVP2,2013-08-31 14:37:00,
2013-08-31 10:42:00,78.1,72.2,29.93,WSW,255,1.0,8.0,82,0.00,,,0.00,WUHU216DAVISVP2,2013-08-31 14:42:00,
2013-08-31 10:47:00,78.7,72.8,29.93,SW,224,8.0,8.0,82,0.00,,,0.00,WUHU216DAVISVP2,2013-08-31 14:47:00,
2013-08-31 10:52:00,78.8,72.6,29.92,WSW,252,2.0,9.0,81,0.00,,,0.00,WUHU216DAVISVP2,2013-08-31 14:52:00,
2013-08-31 10:57:00,79.0,72.7,29.92,WSW,257,6.0,9.0,81,0.00,,,0.00,WUHU216DAVISVP2,2013-08-31 14:57:00,
2013-08-31 11:00:00,79.0,72.3,29.92,SW,225,2.0,9.0,80,0.00,,,0.00,WUHU216DAVISVP2,2013-08-31 15:00:00,
2013-08-31 11:02:00,79.0,72.4,29.92,WSW,252,2.0,9.0,80,0.00,,,0.00,WUHU216DAVISVP2,2013-08-31 15:02:00,
2013-08-31 11:07:00,79.3,72.7,29.92,West,274,2.0,9.0,80,0.00,,,0.00,WUHU216DAVISVP2,2013-08-31 15:07:00,
2013-08-31 11:12:00,79.7,73.1,29.92,SW,231,2.0,9.0,80,0.00,,,0.00,WUHU216DAVISVP2,2013-08-31 15:12:00,
2013-08-31 11:17:00,79.8,73.2,29.92,SW,235,2.0,8.0,80,0.00,,,0.00,WUHU216DAVISVP2,2013-08-31 15:17:00,
2013-08-31 11:22:00,80.2,73.5,29.92,WSW,257,1.0,8.0,80,0.00,,,0.00,WUHU216DAVISVP2,2013-08-31 15:22:00,
2013-08-31 11:27:00,80.9,73.2,29.92,WNW,298,2.0,7.0,77,0.00,,,0.00,WUHU216DAVISVP2,2013-08-31 15:27:00,
2013-08-31 11:30:00,80.7,73.2,29.92,WSW,248,3.0,8.0,78,0.00,,,0.00,WUHU216DAVISVP2,2013-08-31 15:30:00,
2013-08-31 11:32:00,80.7,73.7,29.92,West,278,2.0,7.0,79,0.00,,,0.00,WUHU216DAVISVP2,2013-08-31 15:32:00,
2013-08-31 11:37:00,80.3,73.0,29.92,South,191,0.0,6.0,78,0.00,,,0.00,WUHU216DAVISVP2,2013-08-31 15:37:00,
2013-08-31 11:42:00,80.4,73.8,29.92,SW,219,0.0,6.0,80,0.00,,,0.00,WUHU216DAVISVP2,2013-08-31 15:42:00,
2013-08-31 11:47:00,81.1,74.5,29.92,WSW,246,1.0,6.0,80,0.00,,,0.00,WUHU216DAVISVP2,2013-08-31 15:47:00,
2013-08-31 11:52:00,81.1,73.4,29.92,West,263,2.0,7.0,77,0.00,,,0.00,WUHU216DAVISVP2,2013-08-31 15:52:00,
2013-08-31 11:57:00,81.0,73.9,29.92,WSW,245,3.0,7.0,79,0.00,,,0.00,WUHU216DAVISVP2,2013-08-31 15:57:00,
2013-08-31 12:00:00,81.0,73.5,29.92,WSW,248,2.0,7.0,78,0.00,,,0.00,WUHU216DAVISVP2,2013-08-31 16:00:00,
2013-08-31 12:02:00,81.3,73.9,29.91,WSW,250,5.0,7.0,78,0.00,,,0.00,WUHU216DAVISVP2,2013-08-31 16:02:00,
2013-08-31 12:07:00,81.7,73.6,29.91,SW,221,5.0,9.0,76,0.00,,,0.00,WUHU216DAVISVP2,2013-08-31 16:07:00,
2013-08-31 12:12:00,81.7,73.9,29.91,SW,222,2.0,9.0,77,0.00,,,0.00,WUHU216DAVISVP2,2013-08-31 16:12:00,
2013-08-31 12:17:00,82.5,74.3,29.91,SW,224,3.0,8.0,76,0.00,,,0.00,WUHU216DAVISVP2,2013-08-31 16:17:00,
2013-08-31 12:22:00,82.8,74.6,29.91,WSW,243,0.0,8.0,76,0.00,,,0.00,WUHU216DAVISVP2,2013-08-31 16:22:00,
2013-08-31 12:27:00,83.8,74.6,29.91,WNW,291,1.0,8.0,74,0.00,,,0.00,WUHU216DAVISVP2,2013-08-31 16:27:00,
2013-08-31 12:30:00,83.9,74.7,29.91,SW,225,2.0,9.0,74,0.00,,,0.00,WUHU216DAVISVP2,2013-08-31 16:30:00,
2013-08-31 12:32:00,83.3,74.3,29.91,WSW,255,1.0,8.0,74,0.00,,,0.00,WUHU216DAVISVP2,2013-08-31 16:32:00,
2013-08-31 12:37:00,82.7,74.0,29.90,SW,221,2.0,8.0,75,0.00,,,0.00,WUHU216DAVISVP2,2013-08-31 16:37:00,
2013-08-31 12:42:00,83.3,74.3,29.90,ENE,58,1.0,8.0,74,0.00,,,0.00,WUHU216DAVISVP2,2013-08-31 16:42:00,
2013-08-31 12:47:00,83.8,74.8,29.90,South,172,3.0,8.0,74,0.00,,,0.00,WUHU216DAVISVP2,2013-08-31 16:47:00,
2013-08-31 12:52:00,84.6,75.6,29.90,WSW,242,1.0,8.0,74,0.00,,,0.00,WUHU216DAVISVP2,2013-08-31 16:52:00,
2013-08-31 12:57:00,85.1,74.9,29.89,West,270,1.0,6.0,71,0.00,,,0.00,WUHU216DAVISVP2,2013-08-31 16:57:00,
2013-08-31 13:00:00,85.0,75.0,29.89,WSW,248,2.0,8.0,72,0.00,,,0.00,WUHU216DAVISVP2,2013-08-31 17:00:00,
2013-08-31 13:02:00,84.9,75.9,29.89,SW,235,2.0,8.0,74,0.00,,,0.00,WUHU216DAVISVP2,2013-08-31 17:02:00,
2013-08-31 13:07:00,85.3,75.2,29.89,SSW,210,1.0,8.0,72,0.00,,,0.00,WUHU216DAVISVP2,2013-08-31 17:07:00,
2013-08-31 13:12:00,85.9,75.2,29.89,SW,222,2.0,8.0,70,0.00,,,0.00,WUHU216DAVISVP2,2013-08-31 17:12:00,
2013-08-31 13:17:00,86.1,74.6,29.88,SW,214,1.0,7.0,68,0.00,,,0.00,WUHU216DAVISVP2,2013-08-31 17:17:00,
2013-08-31 13:22:00,86.2,74.7,29.88,WSW,242,3.0,9.0,68,0.00,,,0.00,WUHU216DAVISVP2,2013-08-31 17:22:00,
2013-08-31 13:27:00,86.1,74.6,29.88,SSW,212,3.0,9.0,68,0.00,,,0.00,WUHU216DAVISVP2,2013-08-31 17:27:00,
2013-08-31 13:30:00,86.0,75.1,29.88,SW,225,2.0,9.0,70,0.00,,,0.00,WUHU216DAVISVP2,2013-08-31 17:30:00,
2013-08-31 13:32:00,85.5,74.4,29.88,SW,229,1.0,9.0,69,0.00,,,0.00,WUHU216DAVISVP2,2013-08-31 17:32:00,
2013-08-31 13:37:00,85.6,74.5,29.88,SW,225,4.0,9.0,69,0.00,,,0.00,WUHU216DAVISVP2,2013-08-31 17:37:00,
2013-08-31 13:42:00,85.7,75.0,29.88,South,188,1.0,8.0,70,0.00,,,0.00,WUHU216DAVISVP2,2013-08-31 17:42:00,
2013-08-31 13:47:00,85.9,74.8,29.88,WSW,243,1.0,10.0,69,0.00,,,0.00,WUHU216DAVISVP2,2013-08-31 17:47:00,
2013-08-31 13:52:00,86.6,75.1,29.88,SW,214,0.0,10.0,68,0.00,,,0.00,WUHU216DAVISVP2,2013-08-31 17:52:00,
2013-08-31 13:57:00,87.2,75.2,29.88,NNW,337,1.0,9.0,67,0.00,,,0.00,WUHU216DAVISVP2,2013-08-31 17:57:00,
2013-08-31 14:00:00,87.3,74.5,29.87,SW,225,2.0,10.0,66,0.00,,,0.00,WUHU216DAVISVP2,2013-08-31 18:00:00,
2013-08-31 14:02:00,87.0,74.3,29.88,SW,231,5.0,9.0,66,0.00,,,0.00,WUHU216DAVISVP2,2013-08-31 18:02:00,
2013-08-31 14:07:00,86.2,75.1,29.88,WSW,249,0.0,8.0,69,0.00,,,0.00,WUHU216DAVISVP2,2013-08-31 18:07:00,
2013-08-31 14:12:00,86.8,75.7,29.87,NNW,337,1.0,8.0,69,0.00,,,0.00,WUHU216DAVISVP2,2013-08-31 18:12:00,
2013-08-31 14:17:00,87.2,75.2,29.87,SW,225,2.0,8.0,67,0.00,,,0.00,WUHU216DAVISVP2,2013-08-31 18:17:00,
2013-08-31 14:22:00,87.2,74.3,29.87,WSW,257,3.0,7.0,65,0.00,,,0.00,WUHU216DAVISVP2,2013-08-31 18:22:00,
2013-08-31 14:27:00,87.2,74.7,29.87,SSE,162,1.0,7.0,66,0.00,,,0.00,WUHU216DAVISVP2,2013-08-31 18:27:00,
2013-08-31 14:30:00,87.2,74.9,29.87,SW,225,2.0,8.0,67,0.00,,,0.00,WUHU216DAVISVP2,2013-08-31 18:30:00,
2013-08-31 14:32:00,87.0,74.7,29.87,South,188,3.0,8.0,67,0.00,,,0.00,WUHU216DAVISVP2,2013-08-31 18:32:00,
2013-08-31 14:37:00,86.7,74.7,29.87,WSW,246,1.0,8.0,67,0.00,,,0.00,WUHU216DAVISVP2,2013-08-31 18:37:00,
2013-08-31 14:42:00,86.9,74.6,29.86,SSW,208,3.0,7.0,67,0.00,,,0.00,WUHU216DAVISVP2,2013-08-31 18:42:00,
2013-08-31 14:47:00,86.4,74.4,29.86,SW,225,2.0,7.0,67,0.00,,,0.00,WUHU216DAVISVP2,2013-08-31 18:47:00,
2013-08-31 14:52:00,85.9,74.4,29.86,SSW,197,3.0,7.0,68,0.00,,,0.00,WUHU216DAVISVP2,2013-08-31 18:52:00,
2013-08-31 14:57:00,86.1,74.1,29.86,East,91,2.0,7.0,67,0.00,,,0.00,WUHU216DAVISVP2,2013-08-31 18:57:00,
2013-08-31 15:00:00,86.2,74.0,29.85,SW,225,2.0,8.0,67,0.00,,,0.00,WUHU216DAVISVP2,2013-08-31 19:00:00,
2013-08-31 15:02:00,86.6,74.2,29.85,SW,225,1.0,6.0,66,0.00,,,0.00,WUHU216DAVISVP2,2013-08-31 19:02:00,
2013-08-31 15:07:00,86.9,74.0,29.85,SW,231,3.0,5.0,65,0.00,,,0.00,WUHU216DAVISVP2,2013-08-31 19:07:00,
2013-08-31 15:12:00,87.4,74.0,29.85,SSE,162,1.0,4.0,64,0.00,,,0.00,WUHU216DAVISVP2,2013-08-31 19:12:00,
2013-08-31 15:17:00,87.9,74.5,29.85,WSW,239,2.0,4.0,64,0.00,,,0.00,WUHU216DAVISVP2,2013-08-31 19:17:00,
2013-08-31 15:22:00,87.7,73.4,29.84,SW,222,3.0,7.0,62,0.00,,,0.00,WUHU216DAVISVP2,2013-08-31 19:22:00,
2013-08-31 15:27:00,87.7,73.8,29.84,SSW,210,2.0,7.0,63,0.00,,,0.00,WUHU216DAVISVP2,2013-08-31 19:27:00,
2013-08-31 15:30:00,87.7,74.0,29.84,SW,225,2.0,7.0,64,0.00,,,0.00,WUHU216DAVISVP2,2013-08-31 19:30:00,
2013-08-31 15:32:00,87.3,73.5,29.84,SSW,203,3.0,7.0,63,0.00,,,0.00,WUHU216DAVISVP2,2013-08-31 19:32:00,
2013-08-31 15:37:00,86.4,73.7,29.84,SSW,193,1.0,7.0,66,0.00,,,0.00,WUHU216DAVISVP2,2013-08-31 19:37:00,
2013-08-31 15:42:00,86.0,73.6,29.84,WSW,237,1.0,7.0,66,0.00,,,0.00,WUHU216DAVISVP2,2013-08-31 19:42:00,
2013-08-31 15:47:00,85.9,73.5,29.83,WNW,285,2.0,6.0,66,0.00,,,0.00,WUHU216DAVISVP2,2013-08-31 19:47:00,
2013-08-31 15:51:00,86.2,73.8,29.84,SSW,212,0.0,6.0,66,0.00,,,0.00,WUHU216DAVISVP2,2013-08-31 19:51:00,
2013-08-31 15:57:00,86.8,74.8,29.84,WNW,284,1.0,5.0,67,0.00,,,0.00,WUHU216DAVISVP2,2013-08-31 19:57:00,
2013-08-31 16:00:00,87.1,75.3,29.84,SW,225,2.0,7.0,68,0.00,,,0.00,WUHU216DAVISVP2,2013-08-31 20:00:00,
2013-08-31 16:02:00,87.3,74.4,29.84,SW,214,1.0,5.0,65,0.00,,,0.00,WUHU216DAVISVP2,2013-08-31 20:02:00,
2013-08-31 16:07:00,87.0,74.5,29.84,South,179,1.0,5.0,66,0.00,,,0.00,WUHU216DAVISVP2,2013-08-31 20:07:00,
2013-08-31 16:12:00,86.6,74.3,29.84,SW,225,3.0,5.0,67,0.00,,,0.00,WUHU216DAVISVP2,2013-08-31 20:12:00,
2013-08-31 16:17:00,86.1,74.6,29.84,SE,145,1.0,5.0,68,0.00,,,0.00,WUHU216DAVISVP2,2013-08-31 20:17:00,
2013-08-31 16:22:00,86.1,74.6,29.84,South,191,0.0,5.0,68,0.00,,,0.00,WUHU216DAVISVP2,2013-08-31 20:22:00,
2013-08-31 16:26:00,85.8,75.1,29.84,SSE,153,0.0,5.0,70,0.00,,,0.00,WUHU216DAVISVP2,2013-08-31 20:26:00,
2013-08-31 16:30:00,85.7,74.4,29.84,SW,225,1.0,5.0,69,0.00,,,0.00,WUHU216DAVISVP2,2013-08-31 20:30:00,
2013-08-31 16:32:00,85.4,73.9,29.84,West,262,3.0,6.0,68,0.00,,,0.00,WUHU216DAVISVP2,2013-08-31 20:32:00,
2013-08-31 16:36:00,85.0,73.3,29.83,West,260,0.0,6.0,68,0.00,,,0.00,WUHU216DAVISVP2,2013-08-31 20:36:00,
2013-08-31 16:41:00,84.7,74.1,29.83,SW,232,0.0,6.0,70,0.00,,,0.00,WUHU216DAVISVP2,2013-08-31 20:41:00,
2013-08-31 16:46:00,84.3,74.5,29.83,SW,215,0.0,5.0,72,0.00,,,0.00,WUHU216DAVISVP2,2013-08-31 20:46:00,
2013-08-31 16:51:00,83.8,73.8,29.84,SW,225,3.0,7.0,72,0.00,,,0.00,WUHU216DAVISVP2,2013-08-31 20:51:00,
2013-08-31 16:56:00,83.3,73.6,29.84,WSW,242,0.0,8.0,72,0.00,,,0.00,WUHU216DAVISVP2,2013-08-31 20:56:00,
2013-08-31 17:00:00,83.1,73.5,29.84,SW,225,2.0,8.0,73,0.00,,,0.00,WUHU216DAVISVP2,2013-08-31 21:00:00,
2013-08-31 17:01:00,82.9,73.6,29.84,WSW,243,2.0,8.0,73,0.00,,,0.00,WUHU216DAVISVP2,2013-08-31 21:01:00,
2013-08-31 17:06:00,82.6,73.1,29.84,SW,235,1.0,7.0,73,0.00,,,0.00,WUHU216DAVISVP2,2013-08-31 21:06:00,
2013-08-31 17:11:00,82.3,73.4,29.84,WSW,252,1.0,7.0,74,0.00,,,0.00,WUHU216DAVISVP2,2013-08-31 21:11:00,
2013-08-31 17:16:00,82.1,73.6,29.85,SW,235,0.0,7.0,75,0.00,,,0.00,WUHU216DAVISVP2,2013-08-31 21:16:00,
2013-08-31 17:21:00,81.7,73.6,29.86,WNW,286,4.0,7.0,76,0.00,,,0.00,WUHU216DAVISVP2,2013-08-31 21:21:00,
2013-08-31 17:26:00,80.7,71.0,29.86,West,270,3.0,9.0,72,0.00,,,0.00,WUHU216DAVISVP2,2013-08-31 21:26:00,
2013-08-31 17:30:00,80.3,70.4,29.86,SW,225,3.0,9.0,72,0.00,,,0.00,WUHU216DAVISVP2,2013-08-31 21:30:00,
2013-08-31 17:31:00,79.8,70.8,29.85,West,266,1.0,9.0,74,0.01,,,0.01,WUHU216DAVISVP2,2013-08-31 21:31:00,
2013-08-31 17:36:00,78.2,71.3,29.86,WSW,255,1.0,9.0,79,0.04,,,0.04,WUHU216DAVISVP2,2013-08-31 21:36:00,
2013-08-31 17:41:00,76.5,70.6,29.86,WSW,245,2.0,9.0,82,0.04,,,0.04,WUHU216DAVISVP2,2013-08-31 21:41:00,
2013-08-31 17:46:00,75.1,70.0,29.86,WSW,249,0.0,6.0,84,0.05,,,0.05,WUHU216DAVISVP2,2013-08-31 21:46:00,
2013-08-31 17:52:00,74.3,70.2,29.86,SSW,208,0.0,3.0,87,0.05,,,0.05,WUHU216DAVISVP2,2013-08-31 21:52:00,
2013-08-31 17:56:00,74.0,70.2,29.87,SSE,161,0.0,3.0,88,0.05,,,0.05,WUHU216DAVISVP2,2013-08-31 21:56:00,
2013-08-31 18:00:00,73.9,70.5,29.87,West,270,1.0,6.0,89,0.00,,,0.00,WUHU216DAVISVP2,2013-08-31 22:00:00,
2013-08-31 18:02:00,73.8,70.3,29.87,SW,221,0.0,0.0,89,0.05,,,0.05,WUHU216DAVISVP2,2013-08-31 22:02:00,
2013-08-31 18:07:00,73.7,70.3,29.86,West,264,0.0,0.0,89,0.06,,,0.06,WUHU216DAVISVP2,2013-08-31 22:07:00,
2013-08-31 18:12:00,73.3,70.2,29.86,West,264,0.0,0.0,90,0.07,,,0.07,WUHU216DAVISVP2,2013-08-31 22:12:00,
2013-08-31 18:17:00,72.8,70.3,29.85,West,264,0.0,0.0,92,0.09,,,0.09,WUHU216DAVISVP2,2013-08-31 22:17:00,
2013-08-31 18:22:00,72.4,70.2,29.86,West,264,0.0,0.0,93,0.10,,,0.10,WUHU216DAVISVP2,2013-08-31 22:22:00,
2013-08-31 18:27:00,72.3,70.1,29.85,West,266,0.0,0.0,93,0.10,,,0.10,WUHU216DAVISVP2,2013-08-31 22:27:00,
2013-08-31 18:30:00,72.3,70.2,29.85,North,0,0.0,0.0,93,0.05,,,0.05,WUHU216DAVISVP2,2013-08-31 22:30:00,
2013-08-31 18:32:00,72.4,70.5,29.86,WSW,255,0.0,0.0,94,0.09,,,0.10,WUHU216DAVISVP2,2013-08-31 22:32:00,
2013-08-31 18:37:00,72.4,70.5,29.86,SW,226,0.0,0.0,94,0.06,,,0.10,WUHU216DAVISVP2,2013-08-31 22:37:00,
2013-08-31 18:42:00,72.3,70.8,29.87,West,260,0.0,0.0,95,0.06,,,0.10,WUHU216DAVISVP2,2013-08-31 22:42:00,
2013-08-31 18:47:00,72.2,70.7,29.87,WSW,253,0.0,0.0,95,0.05,,,0.10,WUHU216DAVISVP2,2013-08-31 22:47:00,
2013-08-31 18:52:00,72.0,70.5,29.87,WSW,249,1.0,4.0,95,0.05,,,0.10,WUHU216DAVISVP2,2013-08-31 22:52:00,
2013-08-31 18:57:00,71.8,70.6,29.87,WSW,258,0.0,4.0,96,0.05,,,0.10,WUHU216DAVISVP2,2013-08-31 22:57:00,
2013-08-31 19:00:00,71.8,70.6,29.87,WSW,248,0.0,4.0,96,0.05,,,0.10,WUHU216DAVISVP2,2013-08-31 23:00:00,
2013-08-31 19:02:00,71.6,70.1,29.87,WSW,257,3.0,7.0,95,0.05,,,0.10,WUHU216DAVISVP2,2013-08-31 23:02:00,
2013-08-31 19:07:00,71.4,69.9,29.87,West,266,1.0,7.0,95,0.04,,,0.10,WUHU216DAVISVP2,2013-08-31 23:07:00,
2013-08-31 19:12:00,71.3,70.1,29.87,SW,229,0.0,6.0,96,0.03,,,0.10,WUHU216DAVISVP2,2013-08-31 23:12:00,
2013-08-31 19:17:00,71.2,70.0,29.87,West,277,0.0,6.0,96,0.01,,,0.10,WUHU216DAVISVP2,2013-08-31 23:17:00,
2013-08-31 19:22:00,71.1,69.9,29.87,WSW,243,0.0,3.0,96,0.00,,,0.10,WUHU216DAVISVP2,2013-08-31 23:22:00,
2013-08-31 19:27:00,71.0,69.8,29.87,SW,235,0.0,2.0,96,0.00,,,0.10,WUHU216DAVISVP2,2013-08-31 23:27:00,
2013-08-31 19:30:00,70.9,69.7,29.87,West,270,0.0,7.0,96,0.00,,,0.10,WUHU216DAVISVP2,2013-08-31 23:30:00,
2013-08-31 19:32:00,70.9,69.7,29.87,SW,231,0.0,1.0,96,0.00,,,0.10,WUHU216DAVISVP2,2013-08-31 23:32:00,
2013-08-31 19:37:00,70.8,69.6,29.87,SW,232,0.0,0.0,96,0.00,,,0.10,WUHU216DAVISVP2,2013-08-31 23:37:00,
2013-08-31 19:42:00,70.7,69.5,29.88,SW,225,0.0,0.0,96,0.00,,,0.10,WUHU216DAVISVP2,2013-08-31 23:42:00,
2013-08-31 19:47:00,70.6,69.4,29.87,SW,226,0.0,0.0,96,0.00,,,0.10,WUHU216DAVISVP2,2013-08-31 23:47:00,
2013-08-31 19:52:00,70.6,69.4,29.88,SW,226,0.0,0.0,96,0.00,,,0.10,WUHU216DAVISVP2,2013-08-31 23:52:00,
2013-08-31 19:57:00,70.5,69.3,29.88,SW,226,0.0,0.0,96,0.00,,,0.10,WUHU216DAVISVP2,2013-08-31 23:57:00,
2013-08-31 20:00:00,70.5,69.3,29.88,North,0,0.0,0.0,96,0.00,,,0.10,WUHU216DAVISVP2,2013-09-01 00:00:00,
2013-08-31 20:02:00,70.4,69.5,29.88,SW,226,0.0,0.0,97,0.00,,,0.10,WUHU216DAVISVP2,2013-09-01 00:02:00,
2013-08-31 20:07:00,70.3,69.4,29.88,SW,226,0.0,0.0,97,0.00,,,0.10,WUHU216DAVISVP2,2013-09-01 00:07:00,
2013-08-31 20:12:00,70.2,69.3,29.88,SW,226,0.0,0.0,97,0.00,,,0.10,WUHU216DAVISVP2,2013-09-01 00:12:00,
2013-08-31 20:17:00,70.1,69.2,29.87,SW,226,0.0,0.0,97,0.00,,,0.10,WUHU216DAVISVP2,2013-09-01 00:17:00,
2013-08-31 20:22:00,70.1,69.2,29.87,SW,221,0.0,0.0,97,0.00,,,0.10,WUHU216DAVISVP2,2013-09-01 00:22:00,
2013-08-31 20:27:00,70.0,69.1,29.87,SW,219,0.0,0.0,97,0.00,,,0.10,WUHU216DAVISVP2,2013-09-01 00:27:00,
2013-08-31 20:30:00,70.0,69.1,29.87,North,0,0.0,0.0,97,0.00,,,0.10,WUHU216DAVISVP2,2013-09-01 00:30:00,
2013-08-31 20:32:00,70.0,69.1,29.87,SW,235,0.0,0.0,97,0.01,,,0.11,WUHU216DAVISVP2,2013-09-01 00:32:00,
2013-08-31 20:37:00,69.9,69.0,29.87,SW,226,0.0,0.0,97,0.01,,,0.11,WUHU216DAVISVP2,2013-09-01 00:37:00,
2013-08-31 20:42:00,69.9,69.0,29.88,SW,226,0.0,0.0,97,0.01,,,0.11,WUHU216DAVISVP2,2013-09-01 00:42:00,
2013-08-31 20:47:00,69.8,68.9,29.88,SW,226,0.0,0.0,97,0.01,,,0.11,WUHU216DAVISVP2,2013-09-01 00:47:00,
2013-08-31 20:52:00,69.7,68.8,29.88,SW,226,0.0,0.0,97,0.01,,,0.11,WUHU216DAVISVP2,2013-09-01 00:52:00,
2013-08-31 20:57:00,69.7,68.8,29.88,SW,226,0.0,0.0,97,0.01,,,0.11,WUHU216DAVISVP2,2013-09-01 00:57:00,
2013-08-31 21:00:00,69.7,68.8,29.88,North,0,0.0,0.0,97,0.00,,,0.10,WUHU216DAVISVP2,2013-09-01 01:00:00,
2013-08-31 21:02:00,69.7,68.8,29.88,SW,226,0.0,0.0,97,0.01,,,0.11,WUHU216DAVISVP2,2013-09-01 01:02:00,
2013-08-31 21:07:00,69.6,68.7,29.88,SSE,167,0.0,0.0,97,0.01,,,0.11,WUHU216DAVISVP2,2013-09-01 01:07:00,
2013-08-31 21:12:00,69.6,68.7,29.88,SSE,167,0.0,0.0,97,0.01,,,0.11,WUHU216DAVISVP2,2013-09-01 01:12:00,
2013-08-31 21:17:00,69.4,68.5,29.89,SSE,167,0.0,0.0,97,0.01,,,0.11,WUHU216DAVISVP2,2013-09-01 01:17:00,
2013-08-31 21:22:00,69.3,68.4,29.89,SSE,167,0.0,0.0,97,0.01,,,0.11,WUHU216DAVISVP2,2013-09-01 01:22:00,
2013-08-31 21:27:00,69.3,68.4,29.89,SSE,167,0.0,0.0,97,0.01,,,0.11,WUHU216DAVISVP2,2013-09-01 01:27:00,
2013-08-31 21:30:00,69.2,68.3,29.89,North,0,0.0,0.0,97,0.01,,,0.11,WUHU216DAVISVP2,2013-09-01 01:30:00,
2013-08-31 21:32:00,69.2,68.3,29.89,SSE,167,0.0,0.0,97,0.00,,,0.11,WUHU216DAVISVP2,2013-09-01 01:32:00,
2013-08-31 21:37:00,69.0,68.1,29.88,SSE,167,0.0,0.0,97,0.00,,,0.11,WUHU216DAVISVP2,2013-09-01 01:37:00,
2013-08-31 21:42:00,68.9,68.0,29.89,SSE,167,0.0,0.0,97,0.00,,,0.11,WUHU216DAVISVP2,2013-09-01 01:42:00,
2013-08-31 21:47:00,68.9,68.0,29.89,SSE,167,0.0,0.0,97,0.00,,,0.11,WUHU216DAVISVP2,2013-09-01 01:47:00,
2013-08-31 21:52:00,68.9,68.3,29.88,SSE,167,0.0,0.0,98,0.00,,,0.11,WUHU216DAVISVP2,2013-09-01 01:52:00,
2013-08-31 21:57:00,68.9,68.3,29.88,SSE,167,0.0,0.0,98,0.00,,,0.11,WUHU216DAVISVP2,2013-09-01 01:57:00,
2013-08-31 22:00:00,68.9,68.3,29.89,North,0,0.0,0.0,98,0.00,,,0.11,WUHU216DAVISVP2,2013-09-01 02:00:00,
2013-08-31 22:02:00,68.8,68.2,29.89,SSE,167,0.0,0.0,98,0.00,,,0.11,WUHU216DAVISVP2,2013-09-01 02:02:00,
2013-08-31 22:07:00,68.8,68.2,29.89,SSE,167,0.0,0.0,98,0.00,,,0.11,WUHU216DAVISVP2,2013-09-01 02:07:00,
2013-08-31 22:12:00,68.8,68.2,29.89,SSE,167,0.0,0.0,98,0.00,,,0.11,WUHU216DAVISVP2,2013-09-01 02:12:00,
2013-08-31 22:17:00,68.7,68.1,29.89,SSE,167,0.0,0.0,98,0.00,,,0.11,WUHU216DAVISVP2,2013-09-01 02:17:00,
2013-08-31 22:22:00,68.6,68.0,29.89,SSE,167,0.0,0.0,98,0.00,,,0.11,WUHU216DAVISVP2,2013-09-01 02:22:00,
2013-08-31 22:27:00,68.6,68.0,29.89,SSE,167,0.0,0.0,98,0.00,,,0.11,WUHU216DAVISVP2,2013-09-01 02:27:00,
2013-08-31 22:30:00,68.6,68.0,29.89,North,0,0.0,0.0,98,0.00,,,0.11,WUHU216DAVISVP2,2013-09-01 02:30:00,
2013-08-31 22:32:00,68.6,68.0,29.89,SSE,167,0.0,0.0,98,0.00,,,0.11,WUHU216DAVISVP2,2013-09-01 02:32:00,
2013-08-31 22:37:00,68.5,67.9,29.89,SSE,167,0.0,0.0,98,0.00,,,0.11,WUHU216DAVISVP2,2013-09-01 02:37:00,
2013-08-31 22:42:00,68.5,67.9,29.89,SSE,167,0.0,0.0,98,0.00,,,0.11,WUHU216DAVISVP2,2013-09-01 02:42:00,
2013-08-31 22:47:00,68.4,67.8,29.89,SSE,167,0.0,0.0,98,0.00,,,0.11,WUHU216DAVISVP2,2013-09-01 02:47:00,
2013-08-31 22:52:00,68.4,67.8,29.89,SSE,167,0.0,0.0,98,0.00,,,0.11,WUHU216DAVISVP2,2013-09-01 02:52:00,
2013-08-31 22:57:00,68.4,67.8,29.89,SSE,167,0.0,0.0,98,0.00,,,0.11,WUHU216DAVISVP2,2013-09-01 02:57:00,
2013-08-31 23:00:00,68.5,67.9,29.89,North,0,0.0,0.0,98,0.00,,,0.11,WUHU216DAVISVP2,2013-09-01 03:00:00,
2013-08-31 23:02:00,68.5,67.9,29.88,SSE,167,0.0,0.0,98,0.00,,,0.11,WUHU216DAVISVP2,2013-09-01 03:02:00,
2013-08-31 23:07:00,68.5,67.9,29.88,SSE,167,0.0,0.0,98,0.00,,,0.11,WUHU216DAVISVP2,2013-09-01 03:07:00,
2013-08-31 23:12:00,68.4,67.8,29.88,SSE,167,0.0,0.0,98,0.00,,,0.11,WUHU216DAVISVP2,2013-09-01 03:12:00,
2013-08-31 23:17:00,68.3,67.7,29.88,SSE,167,0.0,0.0,98,0.00,,,0.11,WUHU216DAVISVP2,2013-09-01 03:17:00,
2013-08-31 23:22:00,68.3,67.7,29.88,SSE,167,0.0,0.0,98,0.00,,,0.11,WUHU216DAVISVP2,2013-09-01 03:22:00,
2013-08-31 23:27:00,68.3,67.7,29.88,SSE,167,0.0,0.0,98,0.00,,,0.11,WUHU216DAVISVP2,2013-09-01 03:27:00,
2013-08-31 23:30:00,68.3,67.7,29.87,North,0,0.0,0.0,98,0.00,,,0.11,WUHU216DAVISVP2,2013-09-01 03:30:00,
2013-08-31 23:32:00,68.4,67.8,29.87,SSE,167,0.0,0.0,98,0.00,,,0.11,WUHU216DAVISVP2,2013-09-01 03:32:00,
2013-08-31 23:37:00,68.3,67.7,29.87,SSE,167,0.0,0.0,98,0.00,,,0.11,WUHU216DAVISVP2,2013-09-01 03:37:00,
2013-08-31 23:42:00,68.3,67.7,29.87,SSE,167,0.0,0.0,98,0.00,,,0.11,WUHU216DAVISVP2,2013-09-01 03:42:00,
2013-08-31 23:47:00,68.3,67.7,29.87,SSE,167,0.0,0.0,98,0.00,,,0.11,WUHU216DAVISVP2,2013-09-01 03:47:00,
2013-08-31 23:52:00,68.3,67.7,29.87,SSE,167,0.0,0.0,98,0.00,,,0.11,WUHU216DAVISVP2,2013-09-01 03:52:00,
2013-08-31 23:57:00,68.2,67.6,29.87,SSE,167,0.0,0.0,98,0.00,,,0.11,WUHU216DAVISVP2,2013-09-01 03:57:00,